This demonstration page uses our WeatherBlox Daily Observations layout. Learn more.

Left ArrowRight Arrow

38.20091, -84.87328

Hourly Observations for August 29, 2017

Temp ( °F °C ) Dew Point ( °F °C ) Humidity (%) Winds ( mph kmh ) Pressure ( in mb ) Visibility ( mi km ) Precip ( " mm )
12:53 am 00:53 Partly Cloudy 66 18.9 63 17.2 90 90 SE 3 6 30.01 1016 9 14 0.00 0.00
1:53 am 01:53 Partly Cloudy 66 18.9 62 16.7 87 87 Calm 30.00 1016 8 13 0.00 0.00
2:53 am 02:53 Clear 64 17.8 60 15.6 87 87 Calm 29.99 1016 7 11 0.00 0.00
3:03 am 03:03 Clear with Mist and Fog 65 18.3 62 16.7 90 90 Calm 30.00 1016 2 3 0.00 0.00
3:11 am 03:11 Clear with Mist and Fog 63 17.2 61 16.1 93 93 Calm 30.00 1016 6 10 0.00 0.00
3:24 am 03:24 Partly Cloudy with Mist and Fog 63 17.2 60 15.6 90 90 Calm 30.00 1016 4 6 0.00 0.00
3:28 am 03:28 Partly Cloudy with Mist and Fog 63 17.2 61 16.1 93 93 Calm 30.00 1016 2 3 0.00 0.00
3:31 am 03:31 Mostly Cloudy with Mist and Fog 63 17.2 61 16.1 93 93 Calm 30.00 1016 1 1 0.00 0.00
3:53 am 03:53 Mostly Cloudy with Fog 63 17.2 60 15.6 90 90 Calm 29.99 1016 0 0 0.00 0.00
4:15 am 04:15 Cloudy with Mist and Fog 61 16.1 59 15 93 93 Calm 30.00 1016 1 2 0.00 0.00
4:26 am 04:26 Cloudy with Fog 62 16.7 60 15.6 93 93 E 3 6 30.00 1016 1 1 0.00 0.00
4:53 am 04:53 Mostly Cloudy with Fog 63 17.2 61 16.1 93 93 Calm 29.98 1015 0 0 0.00 0.00
5:53 am 05:53 Mostly Cloudy with Fog 63 17.2 60 15.6 90 90 Calm 29.99 1016 1 1 0.00 0.00
6:53 am 06:53 Mostly Cloudy with Fog 63 17.2 61 16.1 93 93 Calm 30.01 1016 5 8 0.00 0.00
7:53 am 07:53 Mostly Cloudy with Fog 63 17.2 61 16.1 93 93 E 5 7 30.02 1017 5 8 0.00 0.00
8:44 am 08:44 Cloudy with Mist and Fog 64 17.8 62 16.7 93 93 Calm 30.03 1017 1 2 0.00 0.00
8:50 am 08:50 Cloudy with Mist and Fog 64 18 63 17 94 94 Calm 30.03 1017 3 5 0.00 0.00
8:53 am 08:53 Cloudy with Mist and Fog 64 17.8 62 16.7 93 93 Calm 30.03 1017 4 6 0.00 0.00
9:26 am 09:26 Mostly Cloudy 67 19.4 63 17.2 87 87 E 3 6 30.03 1017 7 11 0.00 0.00
9:41 am 09:41 Partly Cloudy 68 20 63 17.2 84 84 E 5 7 30.03 1017 10 16 0.00 0.00
9:53 am 09:53 Mostly Sunny 68 20 63 17.2 84 84 SE 5 7 30.03 1017 10 16 0.00 0.00
10:20 am 10:20 Mostly Cloudy 69 20.6 63 17.2 81 81 Calm 30.00 1016 10 16 0.00 0.00
10:39 am 10:39 Mostly Cloudy 71 21.7 63 17.2 76 76 Calm 30.03 1017 10 16 0.00 0.00
10:53 am 10:53 Mostly Cloudy 70 21.1 63 17.2 79 79 SSW 5 7 30.03 1017 10 16 0.00 0.00
11:53 am 11:53 Cloudy 74 23.3 63 17.2 69 69 Calm 30.03 1017 10 16 0.00 0.00
12:28 pm 12:28 Cloudy 76 24.4 64 17.8 67 67 VRB 3 6 30.00 1016 10 16 0.00 0.00
12:53 pm 12:53 Mostly Cloudy 75 23.9 63 17.2 66 66 WSW 3 6 30.02 1017 10 16 0.00 0.00
1:53 pm 13:53 Mostly Cloudy 77 25 63 17.2 62 62 VRB 3 6 30.00 1016 10 16 0.00 0.00
2:02 pm 14:02 Cloudy 77 25 63 17.2 62 62 SSW 5 7 30.00 1016 10 16 0.00 0.00
2:19 pm 14:19 Mostly Cloudy 78 25.6 63 17.2 60 60 WSW 6 9 30.00 1016 10 16 0.00 0.00
2:53 pm 14:53 Mostly Cloudy 79 26.1 63 17.2 58 58 S 8 13 29.99 1016 10 16 0.00 0.00
3:53 pm 15:53 Partly Cloudy 79 26.1 63 17.2 58 58 SSW 9 15 29.97 1015 10 16 0.00 0.00
4:53 pm 16:53 Mostly Sunny 81 27.2 63 17.2 54 54 SW 8 13 29.96 1014 10 16 0.00 0.00
5:53 pm 17:53 Cloudy 78 25.6 62 16.7 58 58 NNE 7 11 29.96 1014 10 16 0.00 0.00
6:53 pm 18:53 Cloudy 76 24.4 64 17.8 67 67 E 7 11 29.96 1015 10 16 0.00 0.00
7:53 pm 19:53 Mostly Sunny 73 22.8 64 17.8 74 74 ESE 5 7 29.97 1015 10 16 0.00 0.00
8:53 pm 20:53 Mostly Cloudy 73 22.8 64 17.8 74 74 N 10 17 29.99 1016 10 16 0.00 0.00
9:45 pm 21:45 Cloudy with Heavy Rain 67 19.4 64 17.8 91 91 NNE 5 7 30.03 1017 2 3 0.16 4.06
9:53 pm 21:53 Cloudy with Rain 67 19.4 64 17.8 91 91 NE 3 6 30.01 1016 3 4 0.18 4.57
10:00 pm 22:00 Cloudy with Light Rain 67 19.4 64 17.8 91 91 ENE 5 7 30.03 1017 5 8 0.01 0.25
10:53 pm 22:53 Cloudy with Light Rain 67 19.4 64 17.8 91 91 Calm 29.99 1016 9 14 0.04 1.02
11:53 pm 23:53 Cloudy 67 19.4 63 17.2 87 87 ENE 3 6 29.99 1016 10 16 0.00 0.03

Powered by AerisWeather